Weather History for KSLI - December, 2013

Change the Weather History Date:

Tuesday, December 10, 2013

  Actual Average Record
Temperature  
Mean Temperature 54 °F -  
Max Temperature 68 °F 68 °F 87 °F (2004)
Min Temperature 39 °F 49 °F 39 °F (2013)
Degree Days  
Heating Degree Days 12    
Growing Degree Days 4 (Base 50)    
Moisture  
Dew Point 12 °F    
Average Humidity 24    
Maximum Humidity 53    
Minimum Humidity 6    
Precipitation  
Precipitation 0.00 in - - ()
Sea Level Pressure  
Sea Level Pressure 30.16 in    
Wind  
Wind Speed 6 mph (NNW)    
Max Wind Speed 13 mph    
Max Gust Speed -    
Visibility 10 miles    
Events      
Averages and records for this station are not official NWS values.
T = Trace of Precipitation, MM = Missing Value Source: NWS Daily Summary

Daily Weather History Graph

Daily Weather History Graph

Search for Another Location

Airport or City:

Trip Planner

Search our weather history database for the weather conditions in past years. The results will help you decide how hot, cold, wet, or windy it might be!

Date:

Astronomy

Dec. 10, 2013 Rise Set
Actual Time 6:46 AM PST 4:43 PM PST
Civil Twilight 6:18 AM PST 5:11 PM PST
Nautical Twilight 5:47 AM PST 5:42 PM PST
Astronomical Twilight 5:17 AM PST 6:12 PM PST
Moon 12:33 PM PST (12/10) 12:25 AM PST (12/10)
Length of Visible Light 10h 52m
Length of Day
9h 57m
Waxing Gibbous, 63% of the Moon is Illuminated
Dec 10
Waxing Gibbous
Dec 17
Full
Dec 25
Last Quarter
Jan 1
New
Jan 7
First Quarter

Hourly Weather History & Observations

Time (PST) Temp. Windchill Dew Point Humidity Pressure Visibility Wind Dir Wind Speed Gust Speed Precip Events Conditions
12:58 AM 47.1 °F - -0.4 °F 14% 30.25 in 10.0 mi North 5.8 mph - N/A   Clear
1:58 AM 46.2 °F 42.7 °F 1.9 °F 16% 30.23 in 10.0 mi NNW 6.9 mph - N/A   Clear
2:58 AM 42.6 °F 39.0 °F 8.8 °F 25% 30.23 in 10.0 mi North 5.8 mph - N/A   Clear
3:58 AM 41.0 °F 35.8 °F 13.3 °F 32% 30.22 in 10.0 mi NW 8.1 mph - N/A   Clear
4:58 AM 40.5 °F 35.8 °F 9.9 °F 29% 30.21 in 10.0 mi NNW 6.9 mph - N/A   Clear
5:58 AM 41.7 °F 39.8 °F 7.9 °F 25% 30.21 in 10.0 mi North 3.5 mph - N/A   Clear
6:58 AM 39.6 °F 36.3 °F 11.1 °F 31% 30.22 in 10.0 mi North 4.6 mph - N/A   Mostly Cloudy
7:55 AM 43.9 °F - 13.6 °F 29% 30.23 in 10.0 mi NNW 1.2 mph - N/A   Mostly Cloudy
8:55 AM 49.8 °F - 15.4 °F 25% 30.22 in 10.0 mi NNW 3.5 mph - N/A   Scattered Clouds
9:55 AM 57.9 °F - 10.0 °F 15% 30.21 in 10.0 mi NNW 4.6 mph - N/A   Mostly Cloudy
10:55 AM 64.6 °F - -4.0 °F 6% 30.18 in 10.0 mi North 6.9 mph - N/A   Scattered Clouds
11:55 AM 66.0 °F - -1.7 °F 7% 30.14 in 10.0 mi NNW 9.2 mph - N/A   Partly Cloudy
12:55 PM 67.3 °F - -2.0 °F 6% 30.11 in 10.0 mi NW 12.7 mph - N/A   Scattered Clouds
1:55 PM 68.7 °F - -0.9 °F 6% 30.09 in 10.0 mi NNW 12.7 mph - N/A   Scattered Clouds
2:58 PM 67.1 °F - 1.2 °F 7% 30.10 in 10.0 mi NW 11.5 mph - N/A   Scattered Clouds
3:58 PM 66.2 °F - 0.5 °F 7% 30.09 in 10.0 mi NW 9.2 mph - N/A   Scattered Clouds
4:58 PM 60.1 °F - 21.7 °F 23% 30.09 in 10.0 mi WNW 9.2 mph - N/A   Scattered Clouds
5:58 PM 55.6 °F - 28.6 °F 36% 30.09 in 10.0 mi NW 5.8 mph - N/A   Partly Cloudy
6:58 PM 52.9 °F - 30.9 °F 43% 30.11 in 10.0 mi NW 3.5 mph - N/A   Partly Cloudy
7:58 PM 48.2 °F - 31.6 °F 53% 30.12 in 10.0 mi WNW 2.3 mph - N/A   Clear
8:58 PM 50.4 °F - 27.1 °F 41% 30.12 in 10.0 mi NNW 5.8 mph - N/A   Clear
9:58 PM 48.0 °F - 22.3 °F 36% 30.12 in 10.0 mi NNW 5.8 mph - N/A   Partly Cloudy
10:58 PM 47.1 °F - 20.1 °F 34% 30.11 in 10.0 mi NNW 6.9 mph - N/A   Clear
11:58 PM 45.5 °F - 19.8 °F 36% 30.10 in 10.0 mi NNE 2.3 mph - N/A   Clear